Regional Weather Roundup
Issued by NWS

Home | Current Version | Previous Version | Text Only | Print | Product List | Glossary Off
Versions: 1 2 3 4 5 6 7 8 9 10 11 12 13 14 15 16 17 18 19 20 21 22 23 24 25 26 27 28 29 30 31 32 33 34 35 36 37 38 39 40 41 42 43 44 45 46 47 48 49 50

000
ASUS43 KMPX 241510
RWRMN
WEATHER ROUNDUP FOR MINNESOTA
NATIONAL WEATHER SERVICE TWIN CITIES/CHANHASSEN MN
1000 AM CDT THU JUL 24 2014


NOTE: "FAIR" INDICATES FEW OR NO CLOUDS BELOW 12,000 FEET WITH NO
SIGNIFICANT WEATHER AND/OR OBSTRUCTIONS TO VISIBILITY. N/A MEANS
CURRENT SKY AND/OR WEATHER CONDITIONS ARE NOT AVAILABLE.

MNZ060>063-068>070-241600-
   Twin Cities Metro

CITY           SKY/WX    TMP DP  RH WIND       PRES   REMARKS
TWIN CITIES    MOSUNNY   73  57  57 SE7       30.14F
ST PAUL        MOSUNNY   74  59  59 SE5       30.14F
CRYSTAL        MOSUNNY   75  58  55 SE7       30.12F
BLAINE         MOSUNNY   77  61  57 S6        30.14S
LAKEVILLE      MOSUNNY   72  61  68 S6        30.14F
EDEN PRAIRIE   MOSUNNY   74  59  59 SE3       30.12F
SOUTH ST PAUL  MOSUNNY   73  59  62 SE6       30.14S
LAKE ELMO      FAIR      72  61  68 S5        30.16S
$$
MNZ001>005-007-008-013>017-022>024-027-028-241600-
   Northwest Minnesota

CITY           SKY/WX    TMP DP  RH WIND       PRES   REMARKS
BEMIDJI        MOSUNNY   71  56  60 S10       30.10F
HALLOCK          N/A     68  59  73 S7        30.06S
ROSEAU         MOSUNNY   68  61  77 S3        30.08F
WARROAD        MOSUNNY   66  63  88 S5        30.09S
THIEF RVR FALL MOSUNNY   70  61  73 S7        30.08S
CROOKSTON      LGT RAIN  68  61  77 S6        30.06F
FOSSTON        MOSUNNY   70  57  64 S10       30.09S
DETROIT LAKES  MOSUNNY   72  57  60 S8        30.10F
MOORHEAD       PTSUNNY   73  61  64 S10G17    30.07S
PARK RAPIDS    PTSUNNY   70  55  59 S12       30.11F
$$
MNZ006-009>011-018-025>026-241600-
   North Central Minnesota

CITY           SKY/WX    TMP DP  RH WIND       PRES   REMARKS
BAUDETTE       PTSUNNY   67  57  70 S6        30.10F
FLAG ISLAND    MOSUNNY   66  55  68 S5        30.09S
INTL FALLS     MOSUNNY   68  54  60 SE6       30.11F
WASKISH        PTSUNNY   68  59  73 CALM      30.10S
BIG FORK       SUNNY     70  55  60 SE5       30.11F
LONGVILLE      MOSUNNY   70  61  73 S3        30.11F
GRAND RAPIDS   SUNNY     66  55  68 SE7       30.12F
CRANE LAKE     MOSUNNY   66  52  59 CALM      30.14F
ORR            SUNNY     70  50  49 SE3       30.10F
COOK           MOSUNNY   68  50  52 S3        30.13F
$$
MNZ012-019>021-037-241600-
   Northeast Minnesota

CITY           SKY/WX    TMP DP  RH WIND       PRES   REMARKS
DULUTH         MOSUNNY   70  55  59 SW5       30.15S
ELY            SUNNY     66  46  48 CALM      30.15S
HIBBING        SUNNY     70  56  61 SE5       30.13F
EVELETH        SUNNY     70  54  56 S5        30.14F
DULUTH HARBOR  SUNNY     61  55  82 CALM      30.16S
TWO HARBORS    SUNNY     68  54  60 SW6       30.13F
SILVER BAY     SUNNY     68  55  64 S3        30.12F
GRAND MARAIS     N/A     55  49  80 SW6       30.13F
G MARAIS ARPRT SUNNY     66  46  48 SW6       30.17S
$$
MNZ029>031-032-039>041-046>048-054>057-064-241600-
   West Central Minnesota

CITY           SKY/WX    TMP DP  RH WIND       PRES   REMARKS
FERGUS FALLS   MOSUNNY   72  54  53 SE12      30.07F
WHEATON        MOSUNNY   68  57  68 SE12      30.06F
MORRIS         MOSUNNY   72  57  60 SE13      30.07F
ALEXANDRIA     MOSUNNY   70  54  56 SE10      30.12F
ELBOW LAKE     FAIR      70  57  62 SE12      30.08F
WADENA         MOSUNNY   70  55  60 S8        30.10F
GLENWOOD       MOSUNNY   72  55  56 SE9       30.11F
APPLETON       MOSUNNY   73  55  53 SE8       30.06F
BENSON         MOSUNNY   73  57  56 S9        30.09F
ORTONVILLE     SUNNY     72  55  56 SE10      30.06F
MADISON        SUNNY     73  55  53 SE12      30.07S
WILLMAR        FAIR      73  55  53 SE9       30.12F
$$
MNZ033>034-036-042>043-049>051-058-059-241600-
   Central Minnesota

CITY           SKY/WX    TMP DP  RH WIND       PRES   REMARKS
ST CLOUD       MOSUNNY   73  58  59 SW5       30.13F
SAUK CENTRE    FAIR      72  56  56 SE8       30.13S
PAYNESVILLE    SUNNY     68  56  64 E7        30.12F
AITKIN         MOSUNNY   75  57  53 SE5       30.11F
PINE RIVER     MOSUNNY   70  59  68 S6        30.15F
BRAINERD       MOSUNNY   71  58  63 S6        30.13F
STAPLES        MOSUNNY   70  54  56 S8        30.11F
LONG PRAIRIE   FAIR      70  55  60 SE8       30.13F
LITTLE FALLS   MOSUNNY   72  55  56 SE5       30.13F
LITCHFIELD     SUNNY     73  61  64 SE8       30.12F
BUFFALO        MOSUNNY   73  57  58 SE5       30.14F
MAPLE LAKE     MOSUNNY   74  62  65 CALM      30.14F
$$
MNZ037-044-045-052-053-241600-
   East Central Minnesota

CITY           SKY/WX    TMP DP  RH WIND       PRES   REMARKS
PRINCETON      MOSUNNY   75  61  60 S6        30.13F
MORA           SUNNY     70  57  64 S3        30.16S
CAMBRIDGE      SUNNY     75  59  57 S6        30.12S
RUSH CITY      SUNNY     71  58  64 S5        30.14S
MOOSE LAKE     SUNNY     70  55  60 SW7       30.13S
HINCKLEY       FAIR      70  59  68 SW3       30.15R
CLOQUET        SUNNY     68  55  64 S7        30.15F
MCGREGOR       SUNNY     70  59  68 S5        30.14F
$$
MNZ071>073-080-081-089-090-097-098-241600-
   Southwest Minnesota

CITY           SKY/WX    TMP DP  RH WIND       PRES   REMARKS
MONTEVIDEO     MOSUNNY   73  57  56 S9        30.09F
GRANITE FALLS  MOSUNNY   70  57  63 E8        30.10F
CANBY          SUNNY     73  59  61 SE9       30.09R
MARSHALL       SUNNY     73  57  56 SE10G16   30.07F
REDWOOD FALLS  MOSUNNY   73  56  54 SE9       30.09F
OLIVIA         MOSUNNY   73  57  56 SE7       30.09F
PIPESTONE      MOSUNNY   72  61  68 S13       30.09R
WINDOM         PTSUNNY   73  57  56 S8        30.11F
WORTHINGTON    CLOUDY    70  57  64 S14G20    30.10F
JACKSON        CLOUDY    72  59  64 S7        30.14F
TRACY          MOSUNNY   74  59  59 SE12      30.08F
SLAYTON        PTSUNNY   72  59  63 SE10G20   30.09F
$$
MNZ065>067-074>077-082>085-091>093-241600-
   South Central Minnesota

CITY           SKY/WX    TMP DP  RH WIND       PRES   REMARKS
MANKATO        MOSUNNY   72  57  60 S8        30.13F
NEW ULM        MOSUNNY   72  59  64 S6        30.12F
ST JAMES       PTSUNNY   73  59  60 S7        30.14F
FAIRMONT       PTSUNNY   73  57  56 SW6       30.16S
GLENCOE        MOSUNNY   75  56  51 SE5       30.12F
FARIBAULT      MOSUNNY   75  55  50 S6        30.15S
OWATONNA       MOSUNNY   73  55  53 S7        30.15F
WASECA         SUNNY     72  52  49 S5        30.16F
ALBERT LEA     SUNNY     73  57  56 S5        30.16R
$$
MNZ078>079-086>088-094>096-241600-
   Southeast Minnesota

CITY           SKY/WX    TMP DP  RH WIND       PRES   REMARKS
ROCHESTER      MOSUNNY   72  60  66 SW8       30.18S
RED WING       MOSUNNY   75  61  60 SE5       30.14F
STANTON        MOSUNNY   74  59  58 S5        30.14R
DODGE CENTER   MOSUNNY   72  61  68 S6        30.17S
WINONA         SUNNY     72  63  73 CALM      30.16F
AUSTIN         SUNNY     73  57  56 SE3       30.16S
PRESTON        SUNNY     69  65  88 CALM      30.18S
$$
ABBREVIATIONS USED IN REMARKS
   TC - TEMPERATURES IN CELSIUS
  WCI - WIND CHILL INDEX
   HX - HEAT INDEX
  VSB - VISIBILITY
$$


USA.gov is the U.S. government's official web portal to all federal, state and local government web resources and services.